Date String (YYYY-MM-DD hh:mm:ss) UTC,Instrument flags,Ambient pressure (hPa),Sample flow (lpm),Bypass flow (lpm),Sample temperature (°C),Ambient temperature (°C),ASC tube jacket temperature (°C),LED temperature (°C),Box temperature (°C),Sample RH (%),Span deviation,Mass concentration (μg/m³),Mass concentration (μg/m³),Mass concentration (μg/m³)
DateTimeUTC,F1_M11,P_M11,Q1_M11,Q2_M11,T1_M11,T2_M11,T3_M11,T4_M11,T5_M11,U1_M11,ZSPAN_M11,X0_M11,X2_M11,X1_M11
2022-07-03 08:00:00,,0826.2,5.00,0.00,29.7,27.0,00.0,38.4,31.3,23.3,0000.0,0007.80,0003.76,0003.17
2022-07-03 08:01:00,,0826.2,5.01,0.00,29.6,27.1,00.0,38.4,31.3,23.3,0000.0,0008.41,0003.76,0003.17
2022-07-03 08:02:00,,0826.2,5.00,0.00,29.5,27.3,00.0,38.4,31.3,23.5,0000.0,0008.24,0003.72,0003.17
2022-07-03 08:03:00,,0826.2,5.00,0.00,29.5,27.5,00.0,38.4,31.3,24.0,0000.0,0008.25,0003.74,0003.19
2022-07-03 08:04:00,,0826.2,5.01,0.00,29.5,27.6,00.0,38.4,31.3,23.9,0000.0,0008.23,0003.74,0003.22
2022-07-03 08:05:00,,0826.2,5.00,0.00,29.5,27.8,00.0,38.4,31.4,24.4,0000.0,0008.33,0003.77,0003.25
2022-07-03 08:06:00,,0826.2,5.01,0.00,29.5,27.9,00.0,38.4,31.4,24.4,0000.0,0008.30,0003.79,0003.27
2022-07-03 08:07:00,,0826.2,5.01,0.00,29.5,28.1,00.0,38.4,31.4,24.7,0000.0,0008.31,0003.81,0003.29
2022-07-03 08:08:00,,0826.2,5.00,0.00,29.6,28.2,00.0,38.4,31.5,24.6,0000.0,0008.38,0003.85,0003.32
2022-07-03 08:09:00,,0826.2,5.00,0.00,29.6,28.3,00.0,38.4,31.5,24.6,0000.0,0008.51,0003.88,0003.34
2022-07-03 08:10:00,,0826.2,5.00,0.00,29.6,28.4,00.0,38.4,31.5,24.5,0000.0,0008.44,0003.96,0003.37
2022-07-03 08:11:00,,0826.2,4.99,0.00,29.6,28.5,00.0,38.4,31.5,24.7,0000.0,0008.63,0004.04,0003.40
2022-07-03 08:12:00,,0826.1,5.00,0.00,29.6,28.5,00.0,38.4,31.6,24.7,0000.0,0008.29,0004.07,0003.43
2022-07-03 08:13:00,,0826.2,5.00,0.00,29.7,28.6,00.0,38.4,31.6,24.6,0000.0,0008.80,0004.15,0003.46
2022-07-03 08:14:00,,0826.1,5.01,0.00,29.7,28.7,00.0,38.4,31.7,24.6,0000.0,0008.91,0004.18,0003.47
2022-07-03 08:15:00,,0826.2,5.01,0.00,29.7,28.7,00.0,38.5,31.7,24.6,0000.0,0008.86,0004.17,0003.47
2022-07-03 08:16:00,,0826.1,4.99,0.00,29.8,28.8,00.0,38.5,31.7,24.6,0000.0,0008.71,0004.14,0003.47
2022-07-03 08:17:00,,0826.1,5.00,0.00,29.8,28.8,00.0,38.5,31.8,24.5,0000.0,0008.70,0004.14,0003.47
2022-07-03 08:18:00,,0826.1,5.00,0.00,29.8,28.9,00.0,38.5,31.8,24.4,0000.0,0008.74,0004.14,0003.47
2022-07-03 08:19:00,,0826.2,5.00,0.00,29.8,28.9,00.0,38.5,31.8,24.4,0000.0,0008.78,0004.15,0003.48
2022-07-03 08:20:00,,0826.2,5.01,0.00,29.9,28.9,00.0,38.5,31.9,24.2,0000.0,0008.78,0004.17,0003.48
2022-07-03 08:21:00,,0826.2,5.00,0.00,29.9,28.9,00.0,38.6,31.9,24.2,0000.0,0008.45,0004.13,0003.47
2022-07-03 08:22:00,,0826.1,5.01,0.00,29.9,28.1,00.0,38.5,31.7,24.0,0000.0,0008.32,0004.06,0003.47
2022-07-03 08:23:00,,0826.0,4.99,0.00,29.8,27.6,00.0,38.5,31.6,24.1,0000.0,0008.37,0004.09,0003.47
2022-07-03 08:24:00,,0826.0,5.00,0.00,29.8,27.5,00.0,38.5,31.5,24.2,0000.0,0007.70,0004.09,0003.47
2022-07-03 08:25:00,,0826.0,5.01,0.00,29.7,27.6,00.0,38.5,31.4,24.2,0000.0,0007.71,0004.07,0003.46
2022-07-03 08:26:00,,0826.0,5.00,0.00,29.7,27.7,00.0,38.5,31.4,24.2,0000.0,0007.95,0004.09,0003.46
2022-07-03 08:27:00,,0826.0,5.00,0.00,29.6,27.8,00.0,38.4,31.4,24.1,0000.0,0008.28,0004.13,0003.45
2022-07-03 08:28:00,,0825.9,5.00,0.00,29.6,27.9,00.0,38.4,31.5,24.2,0000.0,0008.31,0004.12,0003.44
2022-07-03 08:29:00,,0825.9,5.00,0.00,29.6,28.0,00.0,38.4,31.5,24.1,0000.0,0008.70,0004.14,0003.43
2022-07-03 08:30:00,,0825.9,5.00,0.00,29.6,28.2,00.0,38.4,31.5,24.0,0000.0,0008.73,0004.14,0003.42
2022-07-03 08:31:00,,0825.9,5.00,0.00,29.7,28.3,00.0,38.4,31.6,24.0,0000.0,0008.73,0004.14,0003.42
2022-07-03 08:32:00,,0826.0,5.01,0.00,29.7,28.4,00.0,38.4,31.6,24.1,0000.0,0008.70,0004.13,0003.43
2022-07-03 08:33:00,,0825.9,5.00,0.00,29.7,28.5,00.0,38.5,31.6,23.7,0000.0,0008.67,0004.12,0003.42
2022-07-03 08:34:00,,0825.9,4.99,0.00,29.7,28.5,00.0,38.5,31.6,23.5,0000.0,0008.43,0004.05,0003.41
2022-07-03 08:35:00,,0825.9,5.00,0.00,29.7,28.6,00.0,38.5,31.7,23.7,0000.0,0008.78,0004.02,0003.40
2022-07-03 08:36:00,,0825.9,5.01,0.00,29.8,28.7,00.0,38.5,31.7,23.5,0000.0,0009.01,0004.00,0003.39
2022-07-03 08:37:00,,0825.9,5.00,0.00,29.8,28.7,00.0,38.5,31.7,23.1,0000.0,0008.79,0003.99,0003.39
2022-07-03 08:38:00,,0825.9,5.01,0.00,29.8,28.8,00.0,38.5,31.8,23.2,0000.0,0008.59,0003.98,0003.40
2022-07-03 08:39:00,,0825.9,5.00,0.00,29.8,28.8,00.0,38.5,31.8,23.0,0000.0,0008.58,0003.98,0003.41
2022-07-03 08:40:00,,0825.9,5.00,0.00,29.9,28.8,00.0,38.6,31.8,22.7,0000.0,0008.20,0003.93,0003.41
2022-07-03 08:41:00,,0825.9,4.99,0.00,29.9,28.9,00.0,38.6,31.8,22.4,0000.0,0008.20,0003.92,0003.40
2022-07-03 08:42:00,,0825.9,5.01,0.00,29.9,28.9,00.0,38.6,31.9,22.3,0000.0,0008.33,0003.88,0003.40
2022-07-03 08:43:00,,0825.9,5.00,0.00,29.9,28.8,00.0,38.6,31.9,22.2,0000.0,0008.38,0003.89,0003.39
2022-07-03 08:44:00,,0825.8,5.00,0.00,29.9,28.0,00.0,38.5,31.7,22.2,0000.0,0008.52,0003.87,0003.39
2022-07-03 08:45:00,,0825.8,5.01,0.00,29.9,27.6,00.0,38.5,31.6,22.4,0000.0,0008.88,0003.90,0003.38
2022-07-03 08:46:00,,0825.8,5.00,0.00,29.8,27.5,00.0,38.5,31.5,22.3,0000.0,0008.47,0003.91,0003.38
2022-07-03 08:47:00,,0825.9,5.00,0.00,29.7,27.5,00.0,38.5,31.4,22.5,0000.0,0008.29,0003.91,0003.38
2022-07-03 08:48:00,,0825.9,5.00,0.00,29.7,27.6,00.0,38.5,31.4,22.7,0000.0,0008.62,0003.91,0003.37
2022-07-03 08:49:00,,0825.7,5.01,0.00,29.6,27.7,00.0,38.5,31.4,22.5,0000.0,0008.55,0003.88,0003.36
2022-07-03 08:50:00,,0825.7,4.99,0.00,29.6,27.9,00.0,38.4,31.4,22.6,0000.0,0008.54,0003.87,0003.33
2022-07-03 08:51:00,,0825.8,5.00,0.00,29.6,28.0,00.0,38.5,31.5,22.9,0000.0,0008.56,0003.85,0003.32
2022-07-03 08:52:00,,0825.7,5.00,0.00,29.6,28.1,00.0,38.4,31.5,22.8,0000.0,0008.73,0003.83,0003.31
2022-07-03 08:53:00,,0825.7,5.00,0.00,29.6,28.2,00.0,38.5,31.5,22.6,0000.0,0008.67,0003.85,0003.30
2022-07-03 08:54:00,,0825.6,5.00,0.00,29.6,28.3,00.0,38.5,31.5,22.3,0000.0,0008.62,0003.84,0003.30
2022-07-03 08:55:00,,0825.6,5.00,0.00,29.7,28.4,00.0,38.4,31.6,22.4,0000.0,0008.46,0003.83,0003.28
2022-07-03 08:56:00,,0825.6,4.99,0.00,29.7,28.4,00.0,38.5,31.6,22.4,0000.0,0008.57,0003.80,0003.28
2022-07-03 08:57:00,,0825.6,5.00,0.00,29.7,28.5,00.0,38.5,31.6,22.3,0000.0,0008.86,0003.77,0003.28
2022-07-03 08:58:00,,0825.6,4.98,0.00,29.7,28.6,00.0,38.5,31.6,22.2,0000.0,0008.78,0003.76,0003.26
2022-07-03 08:59:00,,0825.6,5.00,0.00,29.7,28.6,00.0,38.5,31.7,22.0,0000.0,0008.87,0003.75,0003.25
